This is the latest recevied weather packets stored in our database for station/object KS5S. If no packets are shown the sender has not sent any weather packets the latest 10 day(s).
| Time | Temp. | Humidity | Pressure | Rain* | Wind** | Luminosity | Snow |
|---|---|---|---|---|---|---|---|
| 1777812992 | 15° C | 81% | 1019.5 hPa | 0 mm | - | 85 W/m² | - |
| 1777812690 | 15° C | 82% | 1019.2 hPa | 0 mm | - | 87 W/m² | - |
| 1777812386 | 14.44° C | 82% | 1019.3 hPa | 0 mm | - | 77 W/m² | - |
| 1777812085 | 14.44° C | 84% | 1019.2 hPa | 0 mm | - | 70 W/m² | - |
| 1777811783 | 13.89° C | 84% | 1019.4 hPa | 0 mm | - | 63 W/m² | - |
| 1777811480 | 13.89° C | 85% | 1019.1 hPa | 0 mm | - | 56 W/m² | - |
| 1777811176 | 13.33° C | 85% | 1019 hPa | 0 mm | - | 49 W/m² | - |
| 1777810873 | 13.33° C | 85% | 1019.1 hPa | 0 mm | - | 42 W/m² | - |
| 1777810569 | 12.78° C | 86% | 1019 hPa | 0 mm | - | 35 W/m² | - |
| 1777810267 | 12.78° C | 86% | 1019 hPa | 0 mm | - | 29 W/m² | - |
| 1777809962 | 12.78° C | 86% | 1018.8 hPa | 0 mm | - | 24 W/m² | - |
| 1777809661 | 12.78° C | 87% | 1018.9 hPa | 0 mm | - | 18 W/m² | - |
| 1777809358 | 12.22° C | 89% | 1018.8 hPa | 0 mm | - | 14 W/m² | - |
| 1777809055 | 12.22° C | 90% | 1018.6 hPa | 0 mm | - | 9 W/m² | - |
| 1777808753 | 11.67° C | 90% | 1018.7 hPa | 0 mm | - | 6 W/m² | - |
| 1777808449 | 12.22° C | 89% | 1018.8 hPa | 0 mm | - | 3 W/m² | - |
| 1777808147 | 12.22° C | 89% | 1018.5 hPa | 0 mm | - | 2 W/m² | - |
| 1777807845 | 12.22° C | 88% | 1018.7 hPa | 0 mm | - | 1 W/m² | - |
| 1777807543 | 12.22° C | 88% | 1018.6 hPa | 0 mm | - | 0 W/m² | - |
| 1777807239 | 12.22° C | 88% | 1018.6 hPa | 0 mm | - | 0 W/m² | - |
| 1777806936 | 12.22° C | 88% | 1018.5 hPa | 0 mm | - | 0 W/m² | - |
| 1777806632 | 12.22° C | 89% | 1018.4 hPa | 0 mm | - | 0 W/m² | - |
| 1777806328 | 12.22° C | 90% | 1018.6 hPa | 0 mm | - | 0 W/m² | - |
| 1777806025 | 11.67° C | 90% | 1018.4 hPa | 0 mm | - | 0 W/m² | - |
| 1777805721 | 11.67° C | 91% | 1018.2 hPa | 0 mm | - | 0 W/m² | - |
* Rain latest hour (hover to see other rain measurements)
** Current wind speed in m/s (hover to see current wind gust speed)